Rifle, CO

10:33 PM MDT on August 19, 2017 (GMT -0600)
Garfield County Regional

Weather History for KRIL - October, 2010

Change the Weather History Date:

Thursday, October 21, 2010

  Actual Average Record
Temperature  
Mean Temperature 52 °F 47 °F  
Max Temperature 68 °F 62 °F 85 °F (1936)
Min Temperature 37 °F 32 °F 15 °F (1911)
Degree Days  
Heating Degree Days 14 18  
Month to date heating degree days 294  
Since 1 July heating degree days 440  
Cooling Degree Days 0 0  
Month to date cooling degree days 0  
Year to date cooling degree days 541  
Growing Degree Days 2 (Base 50)    
Moisture  
Dew Point 33 °F    
Average Humidity 52    
Maximum Humidity 87    
Minimum Humidity 25    
Precipitation  
Precipitation 0.10 in 0.07 in 0.36 in (1912)
Month to date precipitation 1.28  
Year to date precipitation 11.75  
Sea Level Pressure  
Sea Level Pressure 29.92 in    
Wind  
Wind Speed 7 mph (West)    
Max Wind Speed 23 mph    
Max Gust Speed 32 mph    
Visibility 8 miles    
Events Rain    
T = Trace of Precipitation, MM = Missing Value Source: NWS Daily Summary

Daily Weather History Graph

Daily Weather History Graph

Search for Another Location

Airport or City:

Trip Planner

Search our weather history database for the weather conditions in past years. The results will help you decide how hot, cold, wet, or windy it might be!

Date:

Astronomy

Oct. 21, 2010 Rise Set
Actual Time 7:27 AM MDT 6:23 PM MDT
Civil Twilight 6:59 AM MDT 6:50 PM MDT
Nautical Twilight 6:28 AM MDT 7:21 PM MDT
Astronomical Twilight 5:57 AM MDT 7:52 PM MDT
Moon 5:25 PM MDT (10/21) 6:10 AM MDT (10/21)
Length of Visible Light 11h 50m
Length of Day
10h 55m
Waxing Gibbous, 98% of the Moon is Illuminated
Oct 21
Waxing Gibbous
Oct 22
Full
Oct 30
Last Quarter
Nov 5
New
Nov 13
First Quarter

Hourly Weather History & Observations

Time (MDT) Temp. Windchill Dew Point Humidity Pressure Visibility Wind Dir Wind Speed Gust Speed Precip Events Conditions
12:53 AM 43.0 °F - 26.1 °F 51% 30.00 in 10.0 mi Calm Calm - N/A   Clear
1:53 AM 43.0 °F 41.3 °F 26.1 °F 51% 29.99 in 10.0 mi South 3.5 mph - N/A   Clear
2:53 AM 39.9 °F 35.8 °F 27.0 °F 60% 30.01 in 10.0 mi West 5.8 mph - N/A   Clear
3:53 AM 39.9 °F 36.7 °F 27.0 °F 60% 29.99 in 10.0 mi South 4.6 mph - N/A   Clear
4:53 AM 39.0 °F 34.8 °F 25.0 °F 57% 30.00 in 10.0 mi East 5.8 mph - N/A   Clear
5:53 AM 37.9 °F 34.4 °F 25.0 °F 60% 30.02 in 10.0 mi SE 4.6 mph - N/A   Clear
6:53 AM 37.9 °F - 25.0 °F 60% 30.04 in 10.0 mi Calm Calm - N/A   Clear
7:53 AM 37.0 °F 33.3 °F 25.0 °F 62% 30.04 in 9.0 mi ESE 4.6 mph - N/A   Clear
8:53 AM 39.9 °F - 27.0 °F 60% 30.07 in 10.0 mi Calm Calm - N/A   Clear
9:53 AM 45.0 °F 42.6 °F 28.0 °F 52% 30.04 in 10.0 mi NE 4.6 mph - N/A   Clear
10:53 AM 53.1 °F - 28.0 °F 38% 29.98 in 10.0 mi East 4.6 mph - N/A   Clear
11:53 AM 59.0 °F - 30.0 °F 33% 29.94 in 10.0 mi Calm Calm - N/A   Partly Cloudy
12:53 PM 61.0 °F - 32.0 °F 34% 29.88 in 10.0 mi Calm Calm - N/A   Clear
1:53 PM 64.9 °F - 28.0 °F 25% 29.81 in 10.0 mi WNW 4.6 mph - N/A   Clear
2:53 PM 66.9 °F - 33.1 °F 28% 29.77 in 10.0 mi West 12.7 mph - N/A   Clear
3:13 PM 66.2 °F - 33.8 °F 30% 29.87 in 1.8 mi West 20.7 mph 25.3 mph N/A   Haze
3:22 PM 66.2 °F - 33.8 °F 30% 29.87 in 0.8 mi West 23.0 mph 27.6 mph N/A   Haze
3:26 PM 66.2 °F - 32.0 °F 28% 29.87 in 1.0 mi West 20.7 mph 27.6 mph N/A   Haze
3:33 PM 64.4 °F - 33.8 °F 32% 29.87 in 1.8 mi West 19.6 mph - N/A   Haze
3:43 PM 64.4 °F - 33.8 °F 32% 29.87 in 2.0 mi West 23.0 mph - N/A   Haze
3:53 PM 64.0 °F - 34.0 °F 33% 29.77 in 1.8 mi West 23.0 mph 31.1 mph N/A   Haze
4:10 PM 64.4 °F - 33.8 °F 32% 29.87 in 3.0 mi West 20.7 mph 28.8 mph N/A   Haze
4:53 PM 62.1 °F - 34.0 °F 35% 29.77 in 5.0 mi West 19.6 mph 29.9 mph N/A   Haze
5:53 PM 62.1 °F - 35.1 °F 37% 29.80 in 10.0 mi West 13.8 mph 21.9 mph N/A   Overcast
6:53 PM 57.0 °F - 37.9 °F 49% 29.84 in 10.0 mi West 20.7 mph 28.8 mph 0.00 in   Overcast
7:53 PM 54.0 °F - 41.0 °F 62% 29.86 in 10.0 mi West 20.7 mph 32.2 mph N/A   Overcast
8:53 PM 51.1 °F - 43.0 °F 74% 29.87 in 10.0 mi West 20.7 mph - 0.00 in   Overcast
9:53 PM 50.0 °F - 44.1 °F 80% 29.88 in 10.0 mi West 10.4 mph - N/A   Overcast
10:48 PM 48.2 °F - 44.6 °F 87% 29.98 in 9.0 mi NW 5.8 mph - 0.01 in Rain Light Rain
10:53 PM 48.0 °F - 44.1 °F 86% 29.88 in 9.0 mi Variable 3.5 mph - 0.01 in Rain Light Rain
11:25 PM 48.2 °F - 44.6 °F 87% 29.99 in 9.0 mi Variable 3.5 mph - 0.03 in Rain Light Rain
11:33 PM 48.2 °F - 42.8 °F 82% 29.99 in 6.0 mi Variable 6.9 mph - 0.04 in Rain Rain
11:53 PM 46.9 °F - 43.0 °F 86% 29.88 in 6.0 mi WNW 6.9 mph - 0.09 in Rain Rain